Flag for Germany Weather past 2 weeks in Weil am Rhein, Baden-Württemberg, Germany

Now
48 °F

Fog.


Feels Like: 48 °F
Forecast: 38 / 60 °F
Wind: No wind

Location: Bale-Mulhouse

Current Time: Oct 26, 2014 at 8:12:17 AM

Latest Report: Oct 26, 2014 at 7:00 AM


Visibility: 1 mi

Pressure: 30.29 "Hg

Humidity: 100%

Dew point: 48 °F

Location of Weil am RheinLocation

Historic Weather in Weil am Rhein — Graph

°F

Weil am Rhein temperature yesterday

Maximum temperature yesterday: 60 °F (at 3:00 PM)
Minimum temperature yesterday: 47 °F (at 6:00 AM)
Average temperature yesterday: 52 °F

Past Weeks' High & Low Weather Summary

 TemperatureHumidityPressure
High76 °F (Oct 19, 4:00 PM)100% (Oct 24, 9:00 AM)30.33 "Hg (Oct 24, 9:00 AM)
Low33 °F (Oct 24, 8:00 AM)44% (Oct 23, 4:00 PM)29.74 "Hg (Oct 15, 5:00 PM)
Average56 °F85%30.04 "Hg
* Reported Oct 11 8:00 AM — Oct 26 7:00 AM, Weil am Rhein, Weather by CustomWeather, © 2014

Note: Actual official high and low records may vary slightly from our data, if they occured in-between our weather recording intervals... More about our weather records

Advertising

Weil am Rhein weather history for previous 24 hours

 ConditionsComfort  
Time TempWeatherWind HumidityBarometerVisibility
7:00 AM
Oct 26
48 °FFog.No wind100%30.29 "Hg1 mi
6:00 AM45 °FFog.3 mph98%30.30 "Hg1 mi
5:00 AM47 °FFog.2 mph98%30.29 "Hg1 mi
4:00 AM46 °FHeavy rain. Low clouds.2 mph97%30.28 "Hg0 mi
3:00 AM48 °FHeavy rain. Low clouds.2 mph97%30.28 "Hg0 mi
2:00 AM48 °FHeavy rain. Low clouds.3 mph96%30.28 "Hg1 mi
2:00 AM50 °FOvercast.No wind96%30.27 "Hg2 mi
1:00 AM51 °FOvercast.2 mph96%30.27 "Hg4 mi
12:00 AM52 °FOvercast.1 mph95%30.25 "Hg6 mi
11:00 PM
Oct 25
52 °FOvercast.1 mph95%30.24 "Hg6 mi
10:00 PM52 °FOvercast.1 mph95%30.23 "Hg6 mi
9:00 PM53 °FOvercast.1 mph93%30.21 "Hg7 mi
8:00 PM53 °FLight rain. Overcast.5 mph91%30.20 "Hg7 mi
7:00 PM55 °FLight rain. Overcast.3 mph86%30.18 "Hg9 mi
6:00 PM58 °FOvercast.2 mph73%30.16 "Hg12 mi
5:00 PM59 °FOvercast.1 mph69%30.15 "Hg12 mi
4:00 PM60 °FOvercast.3 mph66%30.14 "Hg12 mi
3:00 PM60 °FOvercast.1 mph66%30.14 "Hg9 mi
2:00 PM59 °FPartly sunny.3 mph67%30.14 "Hg9 mi
1:00 PM55 °FOvercast.3 mph77%30.16 "Hg9 mi
12:00 PM53 °FOvercast.6 mph82%30.16 "Hg6 mi
11:00 AM50 °FLight rain. Overcast.5 mph89%30.17 "Hg5 mi
10:00 AM50 °FLight rain. Overcast.2 mph85%30.16 "Hg6 mi
9:00 AM48 °FOvercast.2 mph86%30.15 "Hg7 mi
8:00 AM48 °FOvercast.3 mph88%30.14 "Hg6 mi
Weather by CustomWeather, © 2014

See weather overviewHow to use our weather pages